DELTA 1 DEB, 42651

Orbit data source: Space-Track

DELTA 1 DEB, 42651 is space debris in SSO originally from a launch on Thu, 12 Jun 1975 UTC launched from the Air Force Western Test Range (AFWTR). Debris objects in space refer to the collection of defunct objects orbiting the Earth. Examples of debris include non-operational satellites, rocket bodies, and fragments generated from explosions, collisions, or faulty payload assembly.

Loading next visibility...
Identifier
42651, 1975-052ML
Orbit
SSO
Country
Flag of USUS
Related business
Manufacturer
Unknown
Mission
Spacecraft
Bus & Motor
Unknown
Mass
Unknown
Launch date (UTC)
1975-06-12 (50 years ago)
Launch vehicle
Unknown
Launch site
Air Force Western Test Range (AFWTR)
Object type
Payload
Rocket body
Debris
Shape & HBR
Unknown shape, 0.1 m
Radar Cross Section
Small (<0.1 m²)

Expand to show TLE details & history
Last TLE update: 2 days ago

TLE from 2 days ago
0 DELTA 1 DEB
1 42651U 75052ML  25286.33244115  .00000928  00000-0  14995-2 0  9992
2 42651  99.2867 226.9605 0157425  94.1305  56.6727 13.46048195538131
Epoch: 2025-10-13T07:58Z
TLE epoch observation values (Epoch: 2025-10-13T07:58:42.915Z)
Latitude
27.31979°
Longitude
-90.03468°
Altitude
1,026.803 km
Speed
7.372 km/s
True Right ascension
03h 27m 07s
True Declination
27° 11' 06"
Sunlit
Object was in full shadow at epoch
Visualization orbit readout
Latitude
Unknown
Longitude
Unknown
Altitude
Unknown
Speed
Unknown
Apparent Right ascension
Unknown
Apparent Declination
Unknown
Sunlit
N/A
Visualization observer readout
Local Sidereal Time
04:37:32
Azimuth
Unknown
Elevation
Unknown
Doppler factor
Unknown
Orbital elements
Apogee altitude
1,201.593 km
Perigee altitude
966.644 km
Semi-major axis
7,462.255 km
Eccentricity
0.01574
Inclination
99.2867°
RAAN
226.9605°
Arg. of periapsis
94.1305°
True anomaly
58.19628°
Mean anomaly
56.6727°
Eccentric anomaly
57.43285°
Mean motion
3.36696 °/min
Orbital period
106.92 mins
BSTAR
0.0014995
Loading maneuver chart data...
Computing Atmospheric mass density...
Loading historical data...
Loading historical data...
Loading historical data...
Loading historical data...
Loading historical data...
Loading historical data...
Loading historical data...

Documentation

Showing up to 5 results
|